Time,TemperatureF,DewpointF,PressureIn,WindDirection,WindDirectionDegrees,WindSpeedMPH,WindSpeedGustMPH,Humidity,HourlyPrecipIn,Conditions,Clouds,dailyrainin,SoftwareType,DateUTC
2013-05-20 00:00:00,45.2,42.2,30.19,South,180,0.0,0.0,89,0.00,,,0.00,WUHU216HW,2013-05-20 07:00:00,
2013-05-20 00:05:00,45.2,42.2,30.19,South,180,0.0,0.0,89,0.00,,,0.00,WUHU216HW,2013-05-20 07:05:00,
2013-05-20 00:30:00,44.5,41.5,30.19,South,180,0.4,0.4,89,0.00,,,0.00,WUHU216HW,2013-05-20 07:30:00,
2013-05-20 00:35:00,44.5,41.5,30.19,South,180,0.4,0.4,89,0.00,,,0.00,WUHU216HW,2013-05-20 07:35:00,
2013-05-20 02:00:00,43.6,40.9,30.19,South,180,0.0,0.0,90,0.00,,,0.00,WUHU216HW,2013-05-20 09:00:00,
2013-05-20 02:05:00,43.6,40.9,30.19,South,180,0.0,0.0,90,0.00,,,0.00,WUHU216HW,2013-05-20 09:05:00,
2013-05-20 03:30:00,45.4,42.9,30.19,South,180,0.0,0.0,91,0.00,,,0.00,WUHU216HW,2013-05-20 10:30:00,
2013-05-20 03:35:00,45.4,42.9,30.19,South,180,0.0,0.0,91,0.00,,,0.00,WUHU216HW,2013-05-20 10:35:00,
2013-05-20 04:00:00,46.3,44.1,30.18,South,180,0.0,0.0,92,0.00,,,0.00,WUHU216HW,2013-05-20 11:00:00,
2013-05-20 04:05:00,46.3,44.1,30.18,South,180,0.0,0.0,92,0.00,,,0.00,WUHU216HW,2013-05-20 11:05:00,
2013-05-20 04:30:00,46.6,44.5,30.17,South,180,0.0,0.0,92,0.00,,,0.00,WUHU216HW,2013-05-20 11:30:00,
2013-05-20 04:35:00,46.6,44.5,30.17,South,180,0.0,0.0,92,0.00,,,0.00,WUHU216HW,2013-05-20 11:35:00,
2013-05-20 05:00:00,47.0,44.8,30.16,South,180,0.0,0.0,92,0.00,,,0.00,WUHU216HW,2013-05-20 12:00:00,
2013-05-20 05:05:00,47.0,44.8,30.16,South,180,0.0,0.0,92,0.00,,,0.00,WUHU216HW,2013-05-20 12:05:00,
2013-05-20 05:30:00,47.5,45.4,30.15,South,180,0.0,0.0,92,0.00,,,0.00,WUHU216HW,2013-05-20 12:30:00,
2013-05-20 05:35:00,47.5,45.4,30.15,South,180,0.0,0.0,92,0.00,,,0.00,WUHU216HW,2013-05-20 12:35:00,
2013-05-20 05:59:00,47.9,46.0,30.14,South,180,0.0,0.0,93,0.00,,,0.00,WUHU216HW,2013-05-20 12:59:00,
2013-05-20 06:00:00,47.9,46.0,30.14,South,180,0.0,0.0,93,0.00,,,0.00,WUHU216HW,2013-05-20 13:00:00,
2013-05-20 06:05:00,47.9,46.0,30.14,South,180,0.0,0.0,93,0.00,,,0.00,WUHU216HW,2013-05-20 13:05:00,
2013-05-20 06:30:00,48.4,46.3,30.13,South,180,0.0,0.0,92,0.00,,,0.00,WUHU216HW,2013-05-20 13:30:00,
2013-05-20 06:35:00,48.4,46.3,30.13,South,180,0.0,0.0,92,0.00,,,0.00,WUHU216HW,2013-05-20 13:35:00,
2013-05-20 06:59:00,49.1,46.9,30.13,South,180,0.0,0.0,92,0.00,,,0.00,WUHU216HW,2013-05-20 13:59:00,
2013-05-20 07:00:00,49.1,46.9,30.13,South,180,0.0,0.0,92,0.00,,,0.00,WUHU216HW,2013-05-20 14:00:00,
2013-05-20 07:05:00,49.1,46.9,30.13,South,180,0.0,0.0,92,0.00,,,0.00,WUHU216HW,2013-05-20 14:05:00,
2013-05-20 07:30:00,49.7,47.7,30.12,North,0,0.0,0.0,93,0.00,,,0.00,WUHU216HW,2013-05-20 14:30:00,
2013-05-20 07:35:00,49.7,47.7,30.12,North,0,0.0,0.0,93,0.00,,,0.00,WUHU216HW,2013-05-20 14:35:00,
2013-05-20 07:59:00,50.2,48.3,30.12,NW,315,0.0,0.0,93,0.00,,,0.00,WUHU216HW,2013-05-20 14:59:00,
2013-05-20 08:00:00,50.2,48.3,30.12,NW,315,0.0,0.0,93,0.00,,,0.00,WUHU216HW,2013-05-20 15:00:00,
2013-05-20 08:05:00,50.2,48.3,30.12,NW,315,0.0,0.0,93,0.00,,,0.00,WUHU216HW,2013-05-20 15:05:00,
2013-05-20 08:30:00,51.3,49.0,30.11,WSW,248,0.4,0.4,92,0.00,,,0.00,WUHU216HW,2013-05-20 15:30:00,
2013-05-20 08:35:00,51.3,49.0,30.11,WSW,248,0.4,0.4,92,0.00,,,0.00,WUHU216HW,2013-05-20 15:35:00,
2013-05-20 08:59:00,52.9,49.4,30.10,North,0,0.0,0.0,88,0.00,,,0.00,WUHU216HW,2013-05-20 15:59:00,
2013-05-20 09:00:00,52.9,49.4,30.10,North,0,0.0,0.0,88,0.00,,,0.00,WUHU216HW,2013-05-20 16:00:00,
2013-05-20 09:05:00,52.9,49.4,30.10,North,0,0.0,0.0,88,0.00,,,0.00,WUHU216HW,2013-05-20 16:05:00,
2013-05-20 09:30:00,52.7,48.3,30.10,North,0,1.1,1.1,85,0.00,,,0.00,WUHU216HW,2013-05-20 16:30:00,
2013-05-20 09:35:00,52.7,48.3,30.10,North,0,1.1,1.1,85,0.00,,,0.00,WUHU216HW,2013-05-20 16:35:00,
2013-05-20 09:59:00,53.1,48.7,30.09,North,0,0.2,0.2,85,0.00,,,0.00,WUHU216HW,2013-05-20 16:59:00,
2013-05-20 10:00:00,53.1,48.7,30.09,North,0,0.2,0.2,85,0.00,,,0.00,WUHU216HW,2013-05-20 17:00:00,
2013-05-20 10:05:00,53.1,48.7,30.09,North,0,0.2,0.2,85,0.00,,,0.00,WUHU216HW,2013-05-20 17:05:00,
2013-05-20 10:30:00,53.8,48.8,30.07,South,180,0.2,0.2,83,0.00,,,0.00,WUHU216HW,2013-05-20 17:30:00,
2013-05-20 10:35:00,53.8,48.8,30.07,South,180,0.2,0.2,83,0.00,,,0.00,WUHU216HW,2013-05-20 17:35:00,
2013-05-20 10:59:00,56.5,50.4,30.06,SSW,203,0.9,0.9,80,0.00,,,0.00,WUHU216HW,2013-05-20 17:59:00,
2013-05-20 11:00:00,56.5,50.4,30.06,SSW,203,0.9,0.9,80,0.00,,,0.00,WUHU216HW,2013-05-20 18:00:00,
2013-05-20 11:05:00,56.5,50.4,30.06,SSW,203,0.9,0.9,80,0.00,,,0.00,WUHU216HW,2013-05-20 18:05:00,
2013-05-20 11:30:00,58.0,51.1,30.04,NW,315,0.4,0.4,78,0.00,,,0.00,WUHU216HW,2013-05-20 18:30:00,
2013-05-20 11:35:00,58.0,51.1,30.04,NW,315,0.4,0.4,78,0.00,,,0.00,WUHU216HW,2013-05-20 18:35:00,
2013-05-20 12:00:00,58.3,50.8,30.03,SW,225,0.9,0.9,76,0.00,,,0.00,WUHU216HW,2013-05-20 19:00:00,
2013-05-20 12:05:00,58.3,50.8,30.03,SW,225,0.9,0.9,76,0.00,,,0.00,WUHU216HW,2013-05-20 19:05:00,
2013-05-20 12:30:00,59.0,50.4,30.03,South,180,1.3,1.3,73,0.00,,,0.00,WUHU216HW,2013-05-20 19:30:00,
2013-05-20 12:35:00,59.0,50.4,30.03,South,180,1.3,1.3,73,0.00,,,0.00,WUHU216HW,2013-05-20 19:35:00,
2013-05-20 13:00:00,62.1,52.3,30.01,WSW,248,2.5,2.5,70,0.00,,,0.00,WUHU216HW,2013-05-20 20:00:00,
2013-05-20 13:05:00,62.1,52.3,30.01,WSW,248,2.5,2.5,70,0.00,,,0.00,WUHU216HW,2013-05-20 20:05:00,
2013-05-20 13:30:00,67.9,54.4,29.99,SW,225,3.1,3.1,62,0.00,,,0.00,WUHU216HW,2013-05-20 20:30:00,
2013-05-20 13:35:00,67.9,54.4,29.99,SW,225,3.1,3.1,62,0.00,,,0.00,WUHU216HW,2013-05-20 20:35:00,
2013-05-20 14:00:00,69.3,53.9,29.98,WSW,248,2.2,2.2,58,0.00,,,0.00,WUHU216HW,2013-05-20 21:00:00,
2013-05-20 14:05:00,69.3,53.9,29.98,WSW,248,2.2,2.2,58,0.00,,,0.00,WUHU216HW,2013-05-20 21:05:00,
2013-05-20 14:30:00,70.9,54.4,29.96,SSW,203,2.0,2.0,56,0.00,,,0.00,WUHU216HW,2013-05-20 21:30:00,
2013-05-20 14:35:00,70.9,54.4,29.96,SSW,203,2.0,2.0,56,0.00,,,0.00,WUHU216HW,2013-05-20 21:35:00,
2013-05-20 14:59:00,71.1,54.5,29.94,NNW,338,1.3,1.3,56,0.00,,,0.00,WUHU216HW,2013-05-20 21:59:00,
2013-05-20 15:00:00,71.1,54.5,29.94,NNW,338,1.3,1.3,56,0.00,,,0.00,WUHU216HW,2013-05-20 22:00:00,
2013-05-20 15:05:00,71.1,54.5,29.94,NNW,338,1.3,1.3,56,0.00,,,0.00,WUHU216HW,2013-05-20 22:05:00,
2013-05-20 15:29:00,71.1,53.6,29.92,SSE,158,2.0,2.0,54,0.00,,,0.00,WUHU216HW,2013-05-20 22:29:00,
2013-05-20 15:30:00,71.1,53.6,29.92,SSE,158,2.0,2.0,54,0.00,,,0.00,WUHU216HW,2013-05-20 22:30:00,
2013-05-20 15:35:00,71.1,53.6,29.92,SSE,158,2.0,2.0,54,0.00,,,0.00,WUHU216HW,2013-05-20 22:35:00,
2013-05-20 15:59:00,70.4,51.4,29.91,East,90,1.8,1.8,51,0.00,,,0.00,WUHU216HW,2013-05-20 22:59:00,
2013-05-20 16:00:00,70.4,51.4,29.91,East,90,1.8,1.8,51,0.00,,,0.00,WUHU216HW,2013-05-20 23:00:00,
2013-05-20 16:05:00,70.4,51.4,29.91,East,90,1.8,1.8,51,0.00,,,0.00,WUHU216HW,2013-05-20 23:05:00,
2013-05-20 16:29:00,72.2,52.5,29.88,North,0,1.1,1.1,50,0.00,,,0.00,WUHU216HW,2013-05-20 23:29:00,
2013-05-20 16:30:00,72.2,52.5,29.88,North,0,1.1,1.1,50,0.00,,,0.00,WUHU216HW,2013-05-20 23:30:00,
2013-05-20 16:35:00,72.2,52.5,29.88,North,0,1.1,1.1,50,0.00,,,0.00,WUHU216HW,2013-05-20 23:35:00,
2013-05-20 16:59:00,72.0,53.4,29.87,SSW,203,1.1,1.1,52,0.00,,,0.00,WUHU216HW,2013-05-20 23:59:00,
2013-05-20 17:00:00,72.0,53.4,29.87,SSW,203,1.1,1.1,52,0.00,,,0.00,WUHU216HW,2013-05-21 00:00:00,
2013-05-20 17:05:00,72.0,53.4,29.87,SSW,203,1.1,1.1,52,0.00,,,0.00,WUHU216HW,2013-05-21 00:05:00,
2013-05-20 17:30:00,72.5,50.5,29.85,WSW,248,2.2,2.2,46,0.00,,,0.00,WUHU216HW,2013-05-21 00:30:00,
2013-05-20 17:35:00,72.5,50.5,29.85,WSW,248,2.2,2.2,46,0.00,,,0.00,WUHU216HW,2013-05-21 00:35:00,
2013-05-20 17:59:00,70.6,49.9,29.83,North,0,1.8,1.8,48,0.00,,,0.00,WUHU216HW,2013-05-21 00:59:00,
2013-05-20 18:00:00,70.6,49.9,29.83,North,0,1.8,1.8,48,0.00,,,0.00,WUHU216HW,2013-05-21 01:00:00,
2013-05-20 18:05:00,70.6,49.9,29.83,North,0,1.8,1.8,48,0.00,,,0.00,WUHU216HW,2013-05-21 01:05:00,
2013-05-20 18:30:00,70.2,51.8,29.82,North,0,1.8,1.8,52,0.00,,,0.00,WUHU216HW,2013-05-21 01:30:00,
2013-05-20 18:35:00,70.2,51.8,29.82,North,0,1.8,1.8,52,0.00,,,0.00,WUHU216HW,2013-05-21 01:35:00,
2013-05-20 18:59:00,68.4,49.6,29.81,NNE,23,1.1,1.1,51,0.00,,,0.00,WUHU216HW,2013-05-21 01:59:00,
2013-05-20 19:00:00,68.4,49.6,29.81,NNE,23,1.1,1.1,51,0.00,,,0.00,WUHU216HW,2013-05-21 02:00:00,
2013-05-20 19:05:00,68.4,49.6,29.81,NNE,23,1.1,1.1,51,0.00,,,0.00,WUHU216HW,2013-05-21 02:05:00,
2013-05-20 19:29:00,66.2,48.6,29.80,NNE,23,1.1,1.1,53,0.00,,,0.00,WUHU216HW,2013-05-21 02:29:00,
2013-05-20 19:30:00,66.2,48.6,29.80,NNE,23,1.1,1.1,53,0.00,,,0.00,WUHU216HW,2013-05-21 02:30:00,
2013-05-20 19:35:00,66.2,48.6,29.80,NNE,23,1.1,1.1,53,0.00,,,0.00,WUHU216HW,2013-05-21 02:35:00,
2013-05-20 19:59:00,63.0,50.2,29.79,NE,45,1.3,1.3,63,0.00,,,0.00,WUHU216HW,2013-05-21 02:59:00,
2013-05-20 20:00:00,63.0,50.2,29.79,NE,45,1.3,1.3,63,0.00,,,0.00,WUHU216HW,2013-05-21 03:00:00,
2013-05-20 20:05:00,63.0,50.2,29.79,NE,45,1.3,1.3,63,0.00,,,0.00,WUHU216HW,2013-05-21 03:05:00,
2013-05-20 20:29:00,60.5,50.8,29.78,East,90,0.0,0.0,70,0.00,,,0.00,WUHU216HW,2013-05-21 03:29:00,
2013-05-20 20:30:00,60.5,50.8,29.78,East,90,0.0,0.0,70,0.00,,,0.00,WUHU216HW,2013-05-21 03:30:00,
2013-05-20 20:35:00,60.5,50.8,29.78,East,90,0.0,0.0,70,0.00,,,0.00,WUHU216HW,2013-05-21 03:35:00,
2013-05-20 20:59:00,58.9,50.6,29.78,North,0,1.3,1.3,74,0.00,,,0.00,WUHU216HW,2013-05-21 03:59:00,
2013-05-20 21:00:00,58.9,50.6,29.78,North,0,1.3,1.3,74,0.00,,,0.00,WUHU216HW,2013-05-21 04:00:00,
2013-05-20 21:01:00,58.9,50.6,29.78,North,0,1.3,1.3,74,0.00,,,0.00,WUHU216HW,2013-05-21 04:01:00,
2013-05-20 21:06:00,58.9,50.6,29.78,North,0,1.3,1.3,74,0.00,,,0.00,WUHU216HW,2013-05-21 04:06:00,
2013-05-20 21:30:00,58.7,50.0,29.77,NNW,338,0.4,0.4,73,0.00,,,0.00,WUHU216HW,2013-05-21 04:30:00,
2013-05-20 21:35:00,58.7,50.0,29.77,NNW,338,0.4,0.4,73,0.00,,,0.00,WUHU216HW,2013-05-21 04:35:00,
2013-05-20 21:59:00,57.8,50.2,29.77,NNE,23,1.1,1.1,76,0.00,,,0.00,WUHU216HW,2013-05-21 04:59:00,
2013-05-20 22:00:00,57.8,50.2,29.77,NNE,23,1.1,1.1,76,0.00,,,0.00,WUHU216HW,2013-05-21 05:00:00,
2013-05-20 22:05:00,57.8,50.2,29.77,NNE,23,1.1,1.1,76,0.00,,,0.00,WUHU216HW,2013-05-21 05:05:00,
2013-05-20 22:30:00,56.7,49.1,29.75,NNW,338,1.6,1.6,76,0.00,,,0.00,WUHU216HW,2013-05-21 05:30:00,
2013-05-20 22:35:00,56.7,49.1,29.75,NNW,338,1.6,1.6,76,0.00,,,0.00,WUHU216HW,2013-05-21 05:35:00,
2013-05-20 23:00:00,56.2,48.6,29.74,ENE,68,0.4,0.4,76,0.00,,,0.00,WUHU216HW,2013-05-21 06:00:00,
2013-05-20 23:05:00,56.2,48.6,29.74,ENE,68,0.4,0.4,76,0.00,,,0.00,WUHU216HW,2013-05-21 06:05:00,
2013-05-20 23:30:00,55.4,48.0,29.74,West,270,0.4,0.4,76,0.00,,,0.00,WUHU216HW,2013-05-21 06:30:00,
2013-05-20 23:35:00,55.4,48.0,29.74,West,270,0.4,0.4,76,0.00,,,0.00,WUHU216HW,2013-05-21 06:35:00,